Weather History for KOVS - January, 2014

Change the Weather History Date:

Monday, January 20, 2014

  Actual Average (KPDC) Record (KPDC)
Temperature  
Mean Temperature 24 °F -  
Max Temperature 37 °F 28 °F 49 °F (1968)
Min Temperature 8 °F 8 °F -25 °F (2008)
Degree Days  
Heating Degree Days 42    
Moisture  
Dew Point 17 °F    
Average Humidity 70    
Maximum Humidity 80    
Minimum Humidity 48    
Precipitation  
Precipitation 0.00 in - - ()
Sea Level Pressure  
Sea Level Pressure 29.96 in    
Wind  
Wind Speed 9 mph (North)    
Max Wind Speed 18 mph    
Max Gust Speed 24 mph    
Visibility 7 miles    
Events Rain , Snow    
Averages and records for this station are not official NWS values.
T = Trace of Precipitation, MM = Missing Value Source: NWS Daily Summary

Daily Weather History Graph

Daily Weather History Graph

Search for Another Location

Airport or City:

Trip Planner

Search our weather history database for the weather conditions in past years. The results will help you decide how hot, cold, wet, or windy it might be!

Date:

Astronomy

Jan. 20, 2014 Rise Set
Actual Time 7:28 AM CST 4:59 PM CST
Civil Twilight 6:57 AM CST 5:30 PM CST
Nautical Twilight 6:22 AM CST 6:05 PM CST
Astronomical Twilight 5:48 AM CST 6:39 PM CST
Moon 9:43 PM CST (1/20) 9:20 AM CST (1/20)
Length of Visible Light 10h 32m
Length of Day
9h 30m
Waning Gibbous, 82% of the Moon is Illuminated
Jan 20
Waning Gibbous
Jan 23
Last Quarter
Jan 30
New
Feb 6
First Quarter
Feb 14
Full

Hourly Weather History & Observations

Time (CST) Temp. Windchill Dew Point Humidity Pressure Visibility Wind Dir Wind Speed Gust Speed Precip Events Conditions
12:14 AM 37.0 °F 30.4 °F 27.0 °F 67% 29.67 in 10.0 mi NW 9.2 mph - N/A   Overcast
12:53 AM 37.0 °F 33.3 °F 27.0 °F 67% 29.70 in 10.0 mi NW 4.6 mph - N/A   Overcast
1:53 AM 36.0 °F 25.6 °F 24.1 °F 62% 29.74 in 10.0 mi NW 18.4 mph 24.2 mph 0.00 in Rain Light Rain
2:16 AM 35.1 °F 25.5 °F 23.0 °F 61% 29.73 in 10.0 mi NW 15.0 mph 24.2 mph 0.00 in Rain Light Rain
2:50 AM 33.8 °F 28.6 °F 23.0 °F 65% 29.75 in 10.0 mi NW 5.8 mph - 0.00 in   Overcast
2:53 AM 34.0 °F 28.0 °F 23.0 °F 64% 29.77 in 10.0 mi NW 6.9 mph - 0.00 in   Overcast
3:53 AM 33.1 °F 30.0 °F 23.0 °F 66% 29.77 in 10.0 mi SW 3.5 mph - 0.00 in   Mostly Cloudy
4:53 AM 30.9 °F 26.2 °F 23.0 °F 72% 29.78 in 10.0 mi SW 4.6 mph - N/A   Mostly Cloudy
5:06 AM 30.9 °F 25.2 °F 21.9 °F 69% 29.76 in 10.0 mi WSW 5.8 mph - N/A   Scattered Clouds
5:53 AM 30.9 °F 26.2 °F 21.9 °F 69% 29.80 in 10.0 mi SSW 4.6 mph - N/A   Overcast
6:53 AM 28.9 °F 22.8 °F 21.9 °F 75% 29.82 in 10.0 mi SW 5.8 mph - N/A   Overcast
7:07 AM 30.0 °F 23.2 °F 21.9 °F 72% 29.80 in 10.0 mi SW 6.9 mph - N/A   Overcast
7:37 AM 28.9 °F 21.9 °F 23.0 °F 78% 29.81 in 10.0 mi SW 6.9 mph - N/A   Overcast
7:53 AM 28.9 °F 19.8 °F 21.9 °F 75% 29.84 in 10.0 mi SW 10.4 mph - N/A   Overcast
8:09 AM 28.9 °F 21.1 °F 23.0 °F 78% 29.82 in 10.0 mi SW 8.1 mph - N/A   Overcast
8:53 AM 30.0 °F 24.1 °F 23.0 °F 75% 29.86 in 10.0 mi SSW 5.8 mph - N/A   Overcast
9:08 AM 30.0 °F 24.1 °F 23.0 °F 75% 29.84 in 10.0 mi SW 5.8 mph - N/A   Overcast
9:53 AM 32.0 °F 27.5 °F 24.1 °F 73% 29.91 in 10.0 mi Variable 4.6 mph - N/A   Overcast
10:11 AM 32.0 °F 25.6 °F 24.1 °F 73% 29.89 in 10.0 mi West 6.9 mph - N/A   Overcast
10:53 AM 33.1 °F 26.9 °F 24.1 °F 70% 29.92 in 10.0 mi WNW 6.9 mph - N/A   Overcast
11:46 AM 33.1 °F 23.9 °F 21.0 °F 61% 29.90 in 10.0 mi NW 12.7 mph - N/A   Overcast
11:53 AM 32.0 °F 23.0 °F 19.9 °F 61% 29.93 in 10.0 mi NNW 11.5 mph 18.4 mph 0.00 in Rain Light Rain
12:53 PM 30.0 °F 21.7 °F 19.0 °F 64% 29.93 in 9.0 mi NW 9.2 mph - 0.00 in Snow Light Snow
1:37 PM 30.0 °F 21.7 °F 19.0 °F 64% 29.91 in 10.0 mi NNW 9.2 mph - 0.00 in   Overcast
1:53 PM 28.9 °F 21.1 °F 18.0 °F 64% 29.94 in 10.0 mi NNW 8.1 mph - 0.00 in   Overcast
2:53 PM 28.9 °F 21.9 °F 19.0 °F 67% 29.96 in 9.0 mi North 6.9 mph - 0.00 in   Overcast
3:08 PM 28.0 °F 20.8 °F 19.0 °F 69% 29.94 in 8.0 mi Variable 6.9 mph - 0.00 in Snow Light Snow
3:24 PM 27.0 °F 19.5 °F 19.9 °F 75% 29.95 in 1.8 mi ENE 6.9 mph - 0.00 in Snow Light Snow
3:48 PM 24.8 °F 17.9 °F 19.4 °F 80% 29.97 in 1.0 mi ENE 5.8 mph - 0.00 in Snow Light Snow
3:53 PM 26.1 °F 17.6 °F 19.9 °F 78% 30.00 in 1.0 mi NE 8.1 mph - 0.00 in Snow Light Snow
4:12 PM 25.0 °F 14.2 °F 18.0 °F 75% 29.98 in 1.5 mi NNE 11.5 mph - 0.00 in Snow Light Snow
4:23 PM 25.0 °F 17.1 °F 18.0 °F 75% 29.99 in 2.0 mi NNE 6.9 mph - 0.00 in Snow Light Snow
4:32 PM 24.1 °F 13.1 °F 18.0 °F 77% 29.99 in 2.0 mi NNE 11.5 mph - 0.00 in Snow Light Snow
4:43 PM 24.1 °F 13.7 °F 18.0 °F 77% 30.00 in 1.2 mi NNE 10.4 mph - 0.00 in Snow Light Snow
4:53 PM 23.0 °F 12.4 °F 16.0 °F 74% 30.05 in 1.5 mi NNE 10.4 mph 18.4 mph 0.00 in Snow Light Snow
5:37 PM 19.9 °F 7.3 °F 12.9 °F 74% 30.05 in 3.0 mi NE 12.7 mph 21.9 mph 0.00 in Snow Light Snow
5:53 PM 19.0 °F 7.5 °F 10.9 °F 71% 30.10 in 3.0 mi NE 10.4 mph 21.9 mph 0.00 in Snow Light Snow
6:04 PM 19.0 °F 6.8 °F 12.0 °F 74% 30.07 in 2.5 mi NE 11.5 mph 19.6 mph 0.00 in Snow Light Snow
6:10 PM 18.0 °F 6.1 °F 10.0 °F 71% 30.08 in 3.0 mi NNE 10.4 mph 19.6 mph 0.00 in Snow Light Snow
6:53 PM 17.1 °F 6.6 °F 9.0 °F 71% 30.14 in 4.0 mi NE 8.1 mph 17.3 mph 0.00 in Snow Light Snow
6:58 PM 17.1 °F 7.6 °F 10.0 °F 74% 30.11 in 2.5 mi NNE 6.9 mph - 0.00 in Snow Light Snow
7:13 PM 16.0 °F 5.3 °F 9.0 °F 74% 30.12 in 1.0 mi NNE 8.1 mph - 0.00 in Snow Light Snow
7:26 PM 15.1 °F 4.2 °F 9.0 °F 77% 30.12 in 2.0 mi NNE 8.1 mph - 0.00 in Snow Light Snow
7:34 PM 15.1 °F 4.2 °F 7.0 °F 70% 30.13 in 3.0 mi NNE 8.1 mph - 0.00 in Snow Light Snow
7:41 PM 15.1 °F 3.3 °F 8.1 °F 74% 30.13 in 3.0 mi NNE 9.2 mph - 0.00 in Snow Light Snow
7:53 PM 14.0 °F 1.2 °F 6.1 °F 71% 30.18 in 4.0 mi NNE 10.4 mph 16.1 mph 0.00 in Snow Light Snow
8:15 PM 14.0 °F 0.5 °F 5.0 °F 67% 30.16 in 4.0 mi NE 11.5 mph 17.3 mph 0.00 in Snow Light Snow
8:53 PM 12.9 °F 0.7 °F 3.0 °F 65% 30.22 in 8.0 mi NNE 9.2 mph 19.6 mph 0.00 in   Overcast
9:53 PM 12.0 °F -2.0 °F -2.0 °F 53% 30.25 in 10.0 mi NNE 11.5 mph 23.0 mph 0.00 in   Overcast
10:53 PM 10.0 °F -7.1 °F -4.0 °F 53% 30.29 in 10.0 mi North 16.1 mph 24.2 mph 0.00 in   Overcast
11:53 PM 8.1 °F -4.3 °F -8.0 °F 48% 30.32 in 10.0 mi NNE 8.1 mph 18.4 mph 0.00 in   Mostly Cloudy